Regional Weather Roundup
Issued by NWS Little Rock, AR

Home | Current Version | Previous Version | Text Only | Print | Product List | Glossary Off
Versions: 1 2 3 4 5 6 7 8 9 10 11 12 13 14 15 16 17 18 19 20 21 22 23 24 25 26 27 28 29 30 31 32 33 34 35 36 37 38 39 40 41 42 43 44 45 46 47 48 49 50

784
ASUS44 KLZK 140005
RWRLZK

WEATHER ROUNDUP FOR ARKANSAS
NATIONAL WEATHER SERVICE LITTLE ROCK AR
600 PM CST SAT FEB 13 2016

NOTE: "FAIR" INDICATES FEW OR NO CLOUDS BELOW 12,000 FEET WITH NO
SIGNIFICANT WEATHER AND/OR OBSTRUCTIONS TO VISIBILITY.

ARZ001-003-010-029-140100-
NORTHWEST ARKANSAS

CITY           SKY/WX    TMP DP  RH WIND       PRES   REMARKS
FAYETTEVILLE   CLEAR     42  15  33 S8        30.24F
6HR MIN TEMP:  42; 6HR MAX TEMP:  50;

FORT SMITH     CLEAR     44  13  28 E15       30.27F
6HR MIN TEMP:  44; 6HR MAX TEMP:  51;

HARRISON       CLOUDY    37   2  22 SE14      30.29F
6HR MIN TEMP:  34; 6HR MAX TEMP:  41;

BENTONVILLE    CLOUDY    45  10  24 SE9       30.23F
6HR MIN TEMP:  39; 6HR MAX TEMP:  48;

ROGERS         CLOUDY    42  12  29 E10       30.22F
6HR MIN TEMP:  36; 6HR MAX TEMP:  47;

SILOAM SPGS    CLEAR     45  14  29 S12       30.22F
6HR MIN TEMP:  39; 6HR MAX TEMP:  52;

HIGHFILL       CLEAR     45  16  31 S12       30.21F
6HR MIN TEMP:  40; 6HR MAX TEMP:  50;

SPRINGDALE     CLEAR     45  12  26 SE12G17   30.25F
$$

ARZ004-005-016-140100-
NORTH CENTRAL ARKANSAS

CITY           SKY/WX    TMP DP  RH WIND       PRES   REMARKS
BATESVILLE     CLOUDY    32   9  37 E9        30.44F WCI  24
6HR MIN TEMP:  32; 6HR MAX TEMP:  37;

FLIPPIN        CLOUDY    37   1  22 E12       30.33F
6HR MIN TEMP:  34; 6HR MAX TEMP:  41;

MTN HOME       CLOUDY    35   0  22 E13G18    30.34F WCI  26
6HR MIN TEMP:  32; 6HR MAX TEMP:  39;

$$

ARZ040-041-140100-
WEST CENTRAL ARKANSAS

CITY           SKY/WX    TMP DP  RH WIND       PRES   REMARKS
MENA           CLEAR     46  23  39 SE3       30.28R
MOUNT IDA      CLEAR     43  16  33 SE3       30.29S
6HR MIN TEMP:  43; 6HR MAX TEMP:  50;

$$

ARZ009-017-025-026-028-140100-
NORTHEAST ARKANSAS

CITY           SKY/WX    TMP DP  RH WIND       PRES   REMARKS
CORNING        FAIR      28   7  40 E14       30.50S WCI  17
JONESBORO      PTCLDY    27   8  44 E15       30.48S WCI  15
6HR MIN TEMP:  27; 6HR MAX TEMP:  32;

NEWPORT        PTCLDY    30   8  39 E12       30.48F WCI  20
6HR MIN TEMP:  30; 6HR MAX TEMP:  36;

WALNUT RIDGE   CLOUDY    28   3  34 E14       30.49F WCI  17
6HR MIN TEMP:  28; 6HR MAX TEMP:  34;

BLYTHEVILLE    CLOUDY    31  10  41 NE14      30.49F WCI  21
6HR MIN TEMP:  31; 6HR MAX TEMP:  37;

$$

ARZ022-023-033-042-044-140100-
CENTRAL ARKANSAS

CITY           SKY/WX    TMP DP  RH WIND       PRES   REMARKS
LITTLE ROCK    PTCLDY    37  11  34 E13       30.41F
6HR MIN TEMP:  37; 6HR MAX TEMP:  42;

N LITTLE ROCK  PTCLDY    36  12  37 E10       30.41F
6HR MIN TEMP:  35; 6HR MAX TEMP:  42;

JACKSONVILLE   CLEAR     36   8  31 E10       30.40F
6HR MIN TEMP:  36; 6HR MAX TEMP:  42;

SEARCY         CLOUDY    34  10  37 E13       30.45F WCI  25
6HR MIN TEMP:  34; 6HR MAX TEMP:  39;

HOT SPRINGS    CLEAR     42  11  28 E7        30.35S
6HR MIN TEMP:  42; 6HR MAX TEMP:  47;

RUSSELLVILLE   CLEAR     39   4  23 E6        30.36S
6HR MIN TEMP:  39; 6HR MAX TEMP:  44;

CLINTON        FAIR      37   5  25 CALM      30.40R
$$

ARZ036-140100-
EAST ARKANSAS

CITY           SKY/WX    TMP DP  RH WIND       PRES   REMARKS
WEST MEMPHIS   HAZE      33   8  35 E9        30.45S VSB<1/4 WCI  25
6HR MIN TEMP:  33; 6HR MAX TEMP:  39;

$$

ARZ050-053-066-070-073-140100-
SOUTHWEST ARKANSAS

CITY           SKY/WX    TMP DP  RH WIND       PRES   REMARKS
ARKADELPHIA    FAIR      43  16  33 E6        30.37R
6HR MIN TEMP:  43; 6HR MAX TEMP:  50;

CAMDEN         CLEAR     45   9  23 E5        30.37R
TEXARKANA      CLEAR     49  26  41 E3        30.31R
6HR MIN TEMP:  48; 6HR MAX TEMP:  54;

EL DORADO      CLEAR     45  16  31 E7        30.36R
6HR MIN TEMP:  45; 6HR MAX TEMP:  51;

DE QUEEN       PTCLDY    49  27  42 E8        30.28S
6HR MIN TEMP:  49; 6HR MAX TEMP:  53;

$$

ARZ056-057-069-140100-
SOUTHEAST ARKANSAS

CITY           SKY/WX    TMP DP  RH WIND       PRES   REMARKS
PINE BLUFF     PTCLDY    38  13  35 E9        30.40F
6HR MIN TEMP:  38; 6HR MAX TEMP:  42; 6HR PCP: TRACE;

STUTTGART      CLEAR     37  12  35 E10       30.42F
6HR MIN TEMP:  36; 6HR MAX TEMP:  39;

MONTICELLO     PTCLDY    41  15  35 E7        30.39F
6HR MIN TEMP:  41; 6HR MAX TEMP:  47;


$$






USA.gov is the U.S. government's official web portal to all federal, state and local government web resources and services.